Tracking 19219 objects as of 19-Jul-2018
HD Live streaming from Space Station
objects crossing your sky now

USA 28

Track USA 28 now!
USA 28 is classified as:


NORAD ID: 18583
Int'l Code: 1987-097A
Perigee: 36,234.8 km
Apogee: 36,428.4 km
Inclination: 14.4 °
Period: 1,463.7 minutes
Semi major axis: 42702 km
RCS: Unknown
Launch date: November 29, 1987
Source: United States (US)
Launch site: AIR FORCE EASTERN TEST RANGE (AFETR)
aabbcc
Your satellite tracking list
Your tracking list is empty




NASA's NSSDC Master Catalog

Two Line Element Set (TLE):
1 18583U 87097A   18161.63344197 0.00000000  00000-0  00000-0 0    03
2 18583  14.4200 359.5645 0022668 210.8057 149.0732  0.98383338    03
Source of the keplerian elements: McCants